Weather History for Cannes, France

Change the Weather History Date:

Wednesday, February 13, 2013

  Actual Average Record
Temperature  
Mean Temperature 45 °F -  
Max Temperature 57 °F 55 °F 66 °F (2007)
Min Temperature 33 °F 42 °F 26 °F (1999)
Degree Days  
Heating Degree Days 20    
Moisture  
Dew Point 33 °F    
Average Humidity 71    
Maximum Humidity 87    
Minimum Humidity 33    
Precipitation  
Precipitation 0.00 in - - ()
Sea Level Pressure  
Sea Level Pressure 29.82 in    
Wind  
Wind Speed 4 mph ()    
Max Wind Speed 8 mph    
Max Gust Speed -    
Visibility 6.2 miles    
Events      
Averages and records for this station are not official NWS values.
T = Trace of Precipitation, MM = Missing Value Source: Averaged Metar Reports

Daily Weather History Graph

Daily Weather History Graph

Search for Another Location

Airport:

Trip Planner

Search our weather history database for the weather conditions in past years. The results will help you decide how hot, cold, wet, or windy it might be!

Date:

Astronomy

Feb. 13, 2013 Rise Set
Actual Time 7:33 AM CET 5:59 PM CET
Civil Twilight 7:03 AM CET 6:29 PM CET
Nautical Twilight 6:30 AM CET 7:03 PM CET
Astronomical Twilight 5:57 AM CET 7:36 PM CET
Moon 8:46 AM CET (2/13) 9:55 PM CET (2/13)
Length of Visible Light 11h 25m
Length of Day
10h 26m
Waxing Crescent, 12% of the Moon is Illuminated
Feb 13
Waxing Crescent
Feb 17
First Quarter
Feb 25
Full
Mar 4
Last Quarter
Mar 11
New

Hourly Weather History & Observations

Time (CET) Temp. Windchill Dew Point Humidity Pressure Visibility Wind Dir Wind Speed Gust Speed Precip Events Conditions
12:00 AM 35.6 °F 32.8 °F 32.0 °F 87% 29.77 in 6.2 mi Variable 3.5 mph - N/A   Unknown
12:30 AM 35.6 °F 32.8 °F 32.0 °F 87% 29.77 in 6.2 mi North 3.5 mph - N/A   Unknown
1:00 AM 35.6 °F 32.8 °F 32.0 °F 87% 29.77 in 6.2 mi Variable 3.5 mph - N/A   Unknown
1:30 AM 35.6 °F 32.8 °F 32.0 °F 87% 29.77 in 6.2 mi North 3.5 mph - N/A   Unknown
2:00 AM 35.6 °F 32.8 °F 32.0 °F 87% 29.77 in 6.2 mi Variable 3.5 mph - N/A   Unknown
2:30 AM 35.6 °F 32.8 °F 32.0 °F 87% 29.77 in 6.2 mi North 3.5 mph - N/A   Unknown
3:00 AM 33.8 °F 30.8 °F 30.2 °F 87% 29.77 in 6.2 mi Variable 3.5 mph - N/A   Unknown
3:30 AM 33.8 °F 30.8 °F 30.2 °F 87% 29.77 in 6.2 mi North 3.5 mph - N/A   Unknown
4:00 AM 33.8 °F 29.6 °F 30.2 °F 87% 29.77 in 6.2 mi North 4.6 mph - N/A   Unknown
4:30 AM 33.8 °F 29.6 °F 30.2 °F 87% 29.77 in 6.2 mi North 4.6 mph - N/A   Unknown
5:00 AM 33.8 °F 29.6 °F 30.2 °F 87% 29.77 in 6.2 mi North 4.6 mph - N/A   Unknown
5:30 AM 33.8 °F 29.6 °F 30.2 °F 87% 29.77 in 6.2 mi North 4.6 mph - N/A   Unknown
6:00 AM 33.8 °F 28.6 °F 30.2 °F 87% 29.77 in 6.2 mi North 5.8 mph - N/A   Unknown
6:30 AM 33.8 °F 29.6 °F 28.4 °F 81% 29.77 in 6.2 mi North 4.6 mph - N/A   Unknown
7:00 AM 33.8 °F 29.6 °F 28.4 °F 81% 29.77 in 6.2 mi North 4.6 mph - N/A   Unknown
7:30 AM 33.8 °F 29.6 °F 28.4 °F 81% 29.80 in 6.2 mi North 4.6 mph - N/A   Unknown
8:00 AM 33.8 °F 30.8 °F 30.2 °F 87% 29.80 in 6.2 mi North 3.5 mph - N/A   Unknown
8:30 AM 35.6 °F 31.7 °F 30.2 °F 81% 29.80 in 6.2 mi North 4.6 mph - N/A   Unknown
9:00 AM 37.4 °F 33.8 °F 32.0 °F 81% 29.80 in 6.2 mi North 4.6 mph - N/A   Unknown
9:30 AM 41.0 °F 38.0 °F 33.8 °F 76% 29.83 in 6.2 mi North 4.6 mph - N/A   Unknown
10:00 AM 42.8 °F 40.1 °F 33.8 °F 70% 29.83 in 6.2 mi North 4.6 mph - N/A   Unknown
10:30 AM 48.2 °F - 37.4 °F 66% 29.83 in 6.2 mi Variable 2.3 mph - N/A   Unknown
11:00 AM 51.8 °F - 37.4 °F 58% 29.83 in 6.2 mi Calm Calm - N/A   Unknown
11:30 AM 53.6 °F - 39.2 °F 58% 29.83 in 6.2 mi Variable 2.3 mph - N/A   Unknown
12:00 PM 53.6 °F - 37.4 °F 54% 29.83 in 6.2 mi SW 8.1 mph - N/A   Unknown
12:30 PM 55.4 °F - 37.4 °F 51% 29.83 in 6.2 mi SW 4.6 mph - N/A   Unknown
1:00 PM 55.4 °F - 39.2 °F 54% 29.83 in 6.2 mi South 8.1 mph - N/A   Unknown
1:30 PM 55.4 °F - 33.8 °F 44% 29.83 in 6.2 mi SW 6.9 mph - N/A   Unknown
2:00 PM 55.4 °F - 32.0 °F 41% 29.83 in 6.2 mi SW 5.8 mph - N/A   Unknown
2:30 PM 57.2 °F - 32.0 °F 38% 29.80 in 6.2 mi SW 3.5 mph - N/A   Unknown
3:00 PM 57.2 °F - 28.4 °F 33% 29.80 in 6.2 mi SW 5.8 mph - N/A   Unknown
3:30 PM 57.2 °F - 30.2 °F 36% 29.83 in 6.2 mi SSW 5.8 mph - N/A   Unknown
4:00 PM 55.4 °F - 26.6 °F 33% 29.83 in 6.2 mi SW 8.1 mph - N/A   Unknown
4:30 PM 53.6 °F - 33.8 °F 47% 29.83 in 6.2 mi SSE 8.1 mph - N/A   Unknown
5:00 PM 53.6 °F - 35.6 °F 51% 29.83 in 6.2 mi South 8.1 mph - N/A   Unknown
5:30 PM 51.8 °F - 39.2 °F 62% 29.83 in 6.2 mi SSE 8.1 mph - N/A   Unknown
6:00 PM 50.0 °F - 39.2 °F 66% 29.83 in 6.2 mi South 3.5 mph - N/A   Unknown
6:30 PM 46.4 °F 45.2 °F 35.6 °F 66% 29.86 in 6.2 mi Variable 3.5 mph - N/A   Unknown
7:00 PM 44.6 °F 43.1 °F 35.6 °F 71% 29.86 in 6.2 mi North 3.5 mph - N/A   Unknown
7:30 PM 42.8 °F 41.1 °F 35.6 °F 76% 29.86 in 6.2 mi Variable 3.5 mph - N/A   Unknown
8:00 PM 42.8 °F 41.1 °F 35.6 °F 76% 29.89 in 6.2 mi North 3.5 mph - N/A   Unknown
8:30 PM 41.0 °F 39.0 °F 33.8 °F 76% 29.89 in 6.2 mi North 3.5 mph - N/A   Unknown
9:00 PM 39.2 °F 35.9 °F 33.8 °F 81% 29.92 in 6.2 mi North 4.6 mph - N/A   Unknown
9:30 PM 39.2 °F - 33.8 °F 81% 29.92 in 6.2 mi Variable 1.2 mph - N/A   Unknown
10:00 PM 39.2 °F 37.0 °F 32.0 °F 75% 29.92 in 6.2 mi Variable 3.5 mph - N/A   Unknown
10:30 PM 37.4 °F 34.9 °F 30.2 °F 75% 29.92 in 6.2 mi North 3.5 mph - N/A   Unknown
11:00 PM 37.4 °F 34.9 °F 30.2 °F 75% 29.92 in 6.2 mi Variable 3.5 mph - N/A   Unknown
11:30 PM 35.6 °F 32.8 °F 30.2 °F 81% 29.95 in 6.2 mi NNW 3.5 mph - N/A   Unknown